Regional Weather Roundup
Issued by NWS

Home | Current Version | Previous Version | Text Only | Print | Product List | Glossary Off
Versions: 1 2 3 4 5 6 7 8 9 10 11 12 13 14 15 16 17 18 19 20 21 22 23 24 25 26 27 28 29 30 31 32 33 34 35 36 37 38 39 40 41 42 43 44 45 46 47 48 49 50

000
ASUS43 KLSX 221507
RWRMO

WEATHER SUMMARY FOR MISSOURI
NATIONAL WEATHER SERVICE SPRINGFIELD MO
1000 AM CDT MON SEP 22 2014

NOTE: "FAIR" INDICATES FEW OR NO CLOUDS BELOW 12,000 FEET WITH NO
       SIGNIFICANT WEATHER AND/OR OBSTRUCTIONS TO VISIBILITY.
       CURRENT SKY AND/OR WEATHER CONDITIONS ARE NOT AVAILABLE FOR
       CHILLICOTHE AND FARMINGTON.

MOZ001>031-035>038-043-044-053-054-221600-
...NORTHERN AND WESTERN MISSOURI...

CITY           SKY/WX    TMP DP  RH WIND       PRES   REMARKS
KANSAS CTY INT MOSUNNY   62  52  69 CALM      30.34R
KANSAS C DTWN  SUNNY     63  52  67 CALM      30.33S
LEE`S SUMMIT   SUNNY     63  51  65 CALM      30.34R
ST JOSEPH      SUNNY     60  53  77 S3        30.34R
CHILLICOTHE      N/A     63  53  70 E3        30.34S
KIRKSVILLE     SUNNY     61  51  70 E5        30.34R

$$
MOZ066>068-077>081-088>096-101>105-221600-
...SOUTHWEST MISSOURI...

CITY           SKY/WX    TMP DP  RH WIND       PRES   REMARKS
SPRINGFIELD    SUNNY     62  51  67 NE10      30.31S
JOPLIN         SUNNY     63  52  67 E7        30.32F

$$
MOZ032>034-039>042-045>050-055>058-069>072-221600-
...CENTRAL MISSOURI...

CITY           SKY/WX    TMP DP  RH WIND       PRES   REMARKS
COLUMBIA       SUNNY     62  53  72 NE6       30.33R
JEFFERSON CITY SUNNY     61  52  72 W3        30.33R
ROLLA          SUNNY     61  52  72 CALM      30.31R
SEDALIA        SUNNY     63  53  70 E3        30.33R
WHITEMAN AFB   SUNNY     62  53  73 NE3       30.32S
OSAGE BEACH    SUNNY     61  50  67 NE7       30.32S

$$
MOZ051-052-059>065-221600-
...EAST CENTRAL MISSOURI...

CITY           SKY/WX    TMP DP  RH WIND       PRES   REMARKS
ST LOUIS INTL  SUNNY     63  51  65 CALM      30.31R
SPIRIT OF STL  SUNNY     61  52  72 CALM      30.31R
ST CHARLES     SUNNY     63  51  65 CALM      30.31R

$$
MOZ072>076-082>087-097>100-106>115-221600-
...SOUTH CENTRAL AND SOUTHEAST MISSOURI...

CITY           SKY/WX    TMP DP  RH WIND       PRES   REMARKS
CAPE GIRARDEAU SUNNY     64  52  64 NE12      30.27R
FARMINGTON     SUNNY     61  54  77 N6        30.31S
POPLAR BLUFF   SUNNY     66  51  58 NE9       30.26R
WEST PLAINS    SUNNY     63  51  65 N8        30.31R

$$


USA.gov is the U.S. government's official web portal to all federal, state and local government web resources and services.